| time (UTC) | temp C | wind direction | speed KPH | gust KPH | rain 1hr cm | rain 24hr cm | rain mn cm | humidity % | barometer mb |
| 20260503193053 | 22 | 274 | 11.3 | 19.3 | 0.00 | 0.00 | 0.00 | 56 | 1012.9 |
| 20260503191543 | 22 | 242 | 9.7 | 17.7 | 0.00 | 0.00 | 0.00 | 56 | 1013.0 |
| 20260503190049 | 23 | 179 | 3.2 | 14.5 | 0.00 | 0.00 | 0.00 | 56 | 1013.1 |
| 20260503184602 | 23 | 249 | 4.8 | 12.9 | 0.00 | 0.00 | 0.00 | 56 | 1013.3 |
| 20260503183048 | 22 | 22 | 3.2 | 12.9 | 0.00 | 0.00 | 0.00 | 55 | 1013.3 |
| 20260503181548 | 21 | 222 | 4.8 | 11.3 | 0.00 | 0.00 | 0.00 | 58 | 1013.4 |
| 20260503180047 | 20 | 236 | 6.4 | 14.5 | 0.00 | 0.00 | 0.00 | 63 | 1013.6 |
| 20260503174601 | 20 | 236 | 6.4 | 16.1 | 0.00 | 0.00 | 0.00 | 65 | 1013.6 |
| 20260503173046 | 20 | 249 | 6.4 | 14.5 | 0.00 | 0.00 | 0.00 | 63 | 1013.7 |
| 20260503171541 | 20 | 215 | 4.8 | 14.5 | 0.00 | 0.00 | 0.00 | 60 | 1013.7 |
| 20260503081547 | 14 | 42 | 3.2 | 9.7 | 0.00 | 0.00 | 0.00 | 81 | 1014.6 |
| 20260503071547 | 15 | 91 | 1.6 | 9.7 | 0.00 | 0.00 | 0.00 | 81 | 1014.6 |
| 20260503054546 | 16 | 0 | 1.6 | 8.0 | 0.00 | 0.00 | 0.00 | 77 | 1014.3 |
| 20260503053043 | 16 | 130 | 1.6 | 4.8 | 0.00 | 0.00 | 0.00 | 76 | 1014.3 |
| 20260503051549 | 16 | 109 | 1.6 | 3.2 | 0.00 | 0.00 | 0.00 | 74 | 1014.3 |
| 20260503050049 | 17 | 80 | 1.6 | 6.4 | 0.00 | 0.00 | 0.00 | 72 | 1014.3 |
| 20260503044552 | 18 | 186 | 1.6 | 3.2 | 0.00 | 0.00 | 0.00 | 67 | 1014.1 |
| 20260503043047 | 18 | 256 | 1.6 | 3.2 | 0.00 | 0.00 | 0.00 | 64 | 1014.1 |
| 20260503041538 | 19 | 247 | 3.2 | 4.8 | 0.00 | 0.00 | 0.00 | 63 | 1014.0 |
| 20260503040043 | 20 | 208 | 3.2 | 6.4 | 0.00 | 0.00 | 0.00 | 61 | 1013.7 |
| 20260503034558 | 20 | 256 | 1.6 | 4.8 | 0.00 | 0.00 | 0.00 | 60 | 1013.4 |
| 20260503033051 | 21 | 220 | 1.6 | 4.8 | 0.00 | 0.00 | 0.00 | 59 | 1013.0 |
| 20260503031552 | 21 | 215 | 1.6 | 4.8 | 0.00 | 0.00 | 0.00 | 56 | 1012.9 |
| 20260503030046 | 22 | 201 | 1.6 | 4.8 | 0.00 | 0.00 | 0.00 | 55 | 1012.8 |
| 20260503024550 | 22 | 219 | 1.6 | 9.7 | 0.00 | 0.00 | 0.00 | 55 | 1012.8 |
| 20260503023041 | 22 | 210 | 6.4 | 12.9 | 0.00 | 0.00 | 0.00 | 54 | 1012.7 |
| 20260503021548 | 22 | 201 | 6.4 | 12.9 | 0.00 | 0.00 | 0.00 | 53 | 1012.8 |
| 20260503020048 | 22 | 230 | 9.7 | 17.7 | 0.00 | 0.00 | 0.00 | 53 | 1012.7 |
| 20260503014600 | 22 | 254 | 9.7 | 16.1 | 0.00 | 0.00 | 0.00 | 53 | 1012.6 |
| 20260503013045 | 23 | 215 | 11.3 | 17.7 | 0.00 | 0.00 | 0.00 | 54 | 1012.5 |
| 20260503011548 | 23 | 244 | 8.0 | 17.7 | 0.00 | 0.00 | 0.00 | 54 | 1012.5 |
| 20260503010051 | 23 | 193 | 4.8 | 14.5 | 0.00 | 0.00 | 0.00 | 53 | 1012.7 |
| 20260503004548 | 23 | 235 | 6.4 | 14.5 | 0.00 | 0.00 | 0.00 | 54 | 1012.8 |
| 20260503003053 | 23 | 236 | 9.7 | 19.3 | 0.00 | 0.00 | 0.00 | 57 | 1013.0 |
| 20260503001606 | 23 | 244 | 8.0 | 17.7 | 0.00 | 0.00 | 0.00 | 55 | 1013.1 |
| 20260503000049 | 22 | 186 | 11.3 | 19.3 | 0.00 | 0.00 | 0.00 | 56 | 1013.1 |
| 20260502234549 | 22 | 193 | 11.3 | 19.3 | 0.00 | 0.00 | 0.00 | 57 | 1013.1 |
| 20260502233042 | 22 | 262 | 11.3 | 22.5 | 0.00 | 0.00 | 0.00 | 57 | 1013.3 |
| 20260502231548 | 22 | 194 | 4.8 | 16.1 | 0.00 | 0.00 | 0.00 | 60 | 1013.4 |
| 20260502230050 | 21 | 176 | 6.4 | 12.9 | 0.00 | 0.00 | 0.00 | 62 | 1013.7 |
| 20260502224547 | 21 | 188 | 4.8 | 11.3 | 0.00 | 0.00 | 0.00 | 63 | 1013.9 |
| 20260502223047 | 20 | 172 | 6.4 | 17.7 | 0.00 | 0.00 | 0.00 | 62 | 1014.1 |
| 20260502221546 | 21 | 197 | 6.4 | 14.5 | 0.00 | 0.00 | 0.00 | 60 | 1014.3 |
| 20260502220042 | 21 | 269 | 1.6 | 17.7 | 0.00 | 0.00 | 0.00 | 60 | 1014.5 |
| 20260502214549 | 21 | 215 | 4.8 | 17.7 | 0.00 | 0.00 | 0.00 | 61 | 1014.6 |
| 20260502213042 | 20 | 180 | 8.0 | 19.3 | 0.00 | 0.00 | 0.00 | 63 | 1014.8 |
| 20260502211546 | 20 | 203 | 8.0 | 19.3 | 0.00 | 0.00 | 0.00 | 63 | 1014.9 |
| 20260502210047 | 20 | 161 | 9.7 | 17.7 | 0.00 | 0.00 | 0.00 | 63 | 1014.9 |
| 20260502204545 | 20 | 208 | 4.8 | 14.5 | 0.00 | 0.00 | 0.00 | 62 | 1015.1 |
| 20260502203042 | 20 | 254 | 4.8 | 14.5 | 0.00 | 0.00 | 0.00 | 64 | 1015.1 |
| 20260502201541 | 18 | 166 | 6.4 | 16.1 | 0.00 | 0.00 | 0.00 | 65 | 1015.2 |
| 20260502200050 | 18 | 230 | 9.7 | 17.7 | 0.00 | 0.00 | 0.00 | 65 | 1015.5 |
| 20260502194547 | 18 | 266 | 6.4 | 11.3 | 0.00 | 0.00 | 0.00 | 64 | 1015.5 |